STARLINK-11127, 60119

Orbit data source: Space-Track

STARLINK-11127, 60119 is a payload satellite owned by SpaceX/Seattle (US) in LEO that was launched on Mon, 24 Jun 2024 UTC via an FALCON 9 launch vehicle from the Air Force Western Test Range (AFWTR). Payload-class satellites include a variety of spacecraft equipped with specific instruments for various scientific and technological missions. These include communications satellites like Starlink; space stations such as the ISS; scientific satellites like the Hubble; Earth observation satellites from companies like Planet Labs, Umbra, and HawkEye 360; GPS; miniature CubeSats for education and research; and military/defense satellites.

Loading next visibility...
Identifier
60119, 2024-118G
Orbit
LEO
Last TLE update
15 hours ago
Origin
Manufacturer
SpaceX/Seattle
Mission
Operational Commercial Communications
Bus & Motor
STARLINK V2M, Unknown motor
Mass
730 kg wet, ~700 kg dry
Launch date (UTC)
2024-06-24 (1 year ago)
Launch vehicle
FALCON 9
Launch site
Air Force Western Test Range (AFWTR)
Object type
Payload
Rocket body
Debris
Shape & HBR
Box + 2 Pan, 29 m
Radar Cross Section
33.884 m², Large (>1 m²)

Expand to show TLE details & history

TLE from 15 hours ago
0 STARLINK-11127
1 60119U 24118G   25181.81375025 -.00001134  00000-0 -45079-5 0  9992
2 60119  53.1606  22.8985 0000994  80.4083 279.7047 15.69703472 58439
Epoch: 2025-06-30T19:31Z
TLE epoch observation values (Epoch: 2025-06-30T19:31:48.021Z)
Latitude
-0.00004°
Longitude
170.83022°
Altitude
360.548 km
Speed
7.694 km/s
True Right ascension
01h 31m 35s
True Declination
0° 00' 00"
Sunlit
Object was in daylight at epoch
Visualization orbit readout
Latitude
-45.54292°
Longitude
118.3494°
Altitude
375.736 km
Speed
7.684 km/s
Apparent Right ascension
13h 30m 14s
Apparent Declination
-88° 21' 05"
Sunlit
Object is in full shadow
Visualization observer readout
Local Sidereal Time
22:11:06
Azimuth
181.667° SSW
Elevation
-40.969°
Doppler factor
1
Orbital elements
Apogee altitude
360.676 km
Perigee altitude
359.336 km
Semi-major axis
6,738.143 km
Eccentricity
0.0001
Inclination
53.1606°
RAAN
22.8985°
Arg. of periapsis
80.4083°
True anomaly
Unknown
Mean anomaly
279.7047°
Eccentric anomaly
Unknown
Mean motion
3.92403 °/min
Orbital period
91.74 mins
BSTAR
-0.0000045079
Loading maneuver chart data...
Loading SW <> Apogee altitude chart data...
Loading historical data...
Loading historical data...
Loading historical data...
Loading historical data...
Loading historical data...
Loading historical data...
Loading historical data...

STARLINK-11127 Visibility forecast

Observer location: undefined°, undefined°

Span
Click to sort rows by Start time (UTC) header in descending order
Start Az.
Max El. time (UTC)
Max El. Az.
Max El.
End time (UTC)
End Az.
5 mins2025-07-01 15:33:38.145Z197.665° SSW2025-07-01 15:35:38.145Z151.087° SSE27.901°2025-07-01 15:38:38.145Z67.785° E
|